Theta_e
351 353 349 349 352 350 346 346 345 347 345 345 345 345 352 352 350 349 353 349 348 351 351 351 349 346 345 346 345 342 344 342 341 336 349 346 346 348 346 346 342 346 344
352 353 347 348 350 352 348 346 347 348 346 344 343 345 352 351 351 353 353 353 353 348 352 352 351 352 348 351 352 352 349 342 343 350 351 349 351 348 348 348 346 349 346
351 353 352 346 350 354 353 348 347 348 350 346 346 349 352 353 352 352 353 354 353 353 352 353 352 353 351 352 352 351 342 339 347 349 346 344 347 347 344 338 350 349 346
352 353 353 348 348 350 353 353 351 353 353 351 350 350 351 353 352 351 353 352 352 353 353 353 353 353 352 349 352 349 339 342 345 349 347 343 341 345 348 338 336 346 346
351 350 353 346 348 348 348 352 352 352 353 353 353 352 353 353 353 352 353 349 352 353 353 352 353 352 352 350 348 347 337 339 343 348 351 346 346 345 342 343 344 345 347
349 350 347 342 346 352 346 345 351 352 352 352 352 353 352 353 351 352 349 353 352 350 354 351 351 349 351 352 343 336 336 343 348 352 343 345 345 345 349 349 348 347 341
349 353 348 343 344 349 352 351 352 350 351 352 354 351 350 350 349 350 347 353 351 348 353 351 348 352 352 351 347 339 341 345 349 345 347 347 342 340 351 348 348 342 335
355 352 351 350 348 348 351 352 351 349 348 351 353 353 352 353 353 348 349 352 353 347 351 352 351 352 352 349 340 334 343 345 350 345 347 344 330 340 350 342 343 342 337
355 352 352 353 354 353 353 353 352 349 351 351 351 353 353 352 352 354 353 350 352 349 351 351 351 350 348 346 338 331 342 344 349 348 348 343 325 325 348 341 335 345 346
354 352 352 353 353 353 352 351 347 351 348 353 353 352 352 353 352 350 351 347 352 349 353 352 351 350 351 349 343 337 338 343 347 349 347 336 331 326 334 340 338 343 343
354 352 352 353 353 352 351 351 349 350 353 352 354 354 353 349 353 351 351 346 352 349 351 353 349 351 348 342 340 340 339 341 349 349 341 335 326 332 341 343 345 345 342
349 353 353 354 356 354 352 351 351 353 353 352 350 352 351 351 351 351 348 347 350 352 348 352 352 349 343 344 340 340 337 348 350 345 340 340 340 334 339 344 345 347 344
348 349 352 354 355 354 352 352 351 352 351 349 350 349 352 350 349 351 350 351 347 352 345 349 352 351 348 348 345 338 339 345 345 348 344 341 343 344 339 339 341 340 340
349 348 349 356 355 353 354 353 352 352 352 352 350 351 351 351 349 351 350 351 351 349 349 341 346 347 346 344 344 345 345 343 345 348 344 342 343 343 344 342 341 341 340
350 349 348 354 355 352 352 353 351 350 351 350 352 350 352 353 351 352 350 350 350 349 348 344 344 342 341 343 342 345 344 345 346 348 346 346 345 343 343 344 344 342 342
351 350 350 353 355 349 353 352 348 352 350 352 354 350 351 351 351 347 350 351 351 349 350 350 349 348 344 344 343 343 344 345 346 346 349 348 347 345 343 343 343 343 342
351 351 352 352 354 355 354 353 354 353 351 352 350 351 347 351 352 350 350 349 348 350 347 347 348 350 348 347 344 343 343 344 344 346 346 349 347 347 348 344 343 342 342
352 351 353 353 355 353 355 354 355 351 351 352 349 352 351 349 353 351 351 351 348 349 348 348 346 346 349 345 345 346 344 344 345 344 345 347 349 348 349 348 347 344 343
352 353 354 353 356 356 356 356 354 351 352 349 351 348 353 353 349 353 352 351 348 347 348 347 350 346 350 350 346 346 347 346 345 345 346 345 346 350 348 348 348 347 346
353 355 356 356 358 358 357 356 354 354 352 352 349 350 350 351 353 354 352 353 349 348 349 350 345 346 346 350 350 348 345 345 346 348 348 346 344 347 347 350 349 349 349
354 358 358 359 359 359 358 356 357 354 353 351 351 349 350 350 350 350 354 353 347 339 349 349 349 347 347 347 350 349 349 347 349 347 346 348 348 347 349 348 350 351 351
354 358 359 360 360 360 359 358 357 355 353 352 350 351 351 351 354 351 353 353 351 350 349 349 349 350 348 347 349 348 353 349 351 347 348 348 345 346 348 351 350 348 351
353 359 360 361 361 362 359 359 357 355 352 351 351 353 352 353 355 354 353 351 350 351 351 348 350 349 349 350 350 347 353 353 349 349 347 348 345 346 346 346 346 349 350
354 358 361 362 363 363 360 360 359 359 355 353 351 354 352 354 356 354 353 352 352 352 350 351 349 349 347 349 349 349 349 351 353 353 350 348 350 349 350 348 349 349 350
355 357 362 364 364 364 362 361 360 358 356 353 353 353 357 356 355 354 355 353 351 353 352 351 353 352 351 350 348 350 349 351 350 351 352 351 347 348 350 351 351 352 350
355 359 362 365 366 366 362 363 361 360 358 358 355 359 358 356 355 354 352 348 347 350 351 352 353 352 351 350 351 352 350 351 351 350 350 350 350 350 351 351 350 350 350
Wind_Speed
26 27 27 22 20 19 16 16 17 15 14 13 13 14 14 13 14 13 13 13 12 13 13 12 11 10 10 10 10 11 10 10 9 11 12 15 16 16 14 16 16 15 16
28 27 26 23 20 19 18 17 17 15 15 13 14 13 12 13 12 12 12 11 11 12 13 11 11 10 8 9 10 11 10 11 12 14 15 16 15 13 14 12 14 16 15
28 25 24 22 20 18 17 16 17 16 16 14 13 12 12 11 11 10 10 10 11 12 13 13 12 10 10 13 11 10 10 12 12 13 17 16 13 12 14 15 16 15 14
28 26 22 22 20 18 16 16 15 16 16 15 13 12 12 11 10 10 9 10 11 12 12 13 13 12 11 13 12 11 11 11 12 13 12 13 12 10 12 13 13 13 13
26 25 24 24 20 18 16 15 14 14 14 13 12 11 11 10 10 9 10 11 12 11 11 11 12 11 11 11 11 11 10 11 8 6 2 13 14 11 13 13 12 12 11
26 25 24 24 20 18 16 14 14 12 12 12 11 11 11 10 10 10 10 10 11 10 10 10 10 12 11 12 12 12 11 9 5 1 11 14 13 14 12 12 11 10 10
32 28 26 24 21 20 18 15 14 14 12 11 11 10 10 10 10 11 10 10 10 9 10 11 11 12 12 12 10 10 12 7 2 7 16 13 13 14 12 13 10 9 8
32 27 25 23 21 20 18 15 13 12 12 11 10 11 9 9 10 11 10 10 10 10 11 10 11 12 12 11 10 13 10 4 1 12 16 10 12 12 11 10 10 9 8
29 28 26 21 19 18 17 16 14 12 12 11 11 11 11 10 10 10 11 11 11 10 9 11 11 11 11 11 10 13 11 6 2 4 13 11 10 12 11 10 11 9 8
30 27 26 22 19 18 16 15 15 12 10 11 11 10 10 11 11 12 11 11 11 10 10 11 11 11 12 10 9 11 9 8 7 7 19 13 10 10 11 9 9 9 8
32 28 27 23 21 20 18 16 15 14 12 12 11 12 12 12 12 12 12 11 12 11 12 11 11 13 13 9 9 10 9 8 9 8 15 11 10 10 11 10 9 8 7
22 28 28 27 24 22 18 18 16 14 13 13 14 15 16 16 15 14 13 14 12 11 12 12 13 13 13 10 10 10 11 8 11 14 17 13 11 8 10 10 9 9 8
22 21 29 31 30 23 20 21 18 19 18 17 17 15 16 13 16 16 17 17 15 14 13 14 14 14 14 18 12 12 6 12 7 14 13 12 10 7 9 10 10 9 8
26 22 23 30 31 25 21 23 23 23 21 21 19 16 15 18 18 17 17 19 17 16 17 17 17 15 18 15 12 13 12 13 3 11 15 11 8 5 9 11 10 10 9
27 26 26 28 33 27 23 23 21 23 24 23 24 20 19 18 16 13 17 15 19 18 16 20 21 18 16 18 14 9 8 9 8 7 14 7 8 4 4 11 12 11 10
27 27 26 29 29 23 23 19 20 21 25 27 27 24 23 17 18 14 13 15 16 15 16 20 19 20 19 18 12 9 10 12 8 10 15 11 7 5 4 7 11 11 11
30 28 30 31 29 25 23 17 18 15 14 23 19 17 25 19 13 12 12 13 14 16 19 18 17 16 12 11 16 15 13 15 14 9 8 9 10 10 8 8 10 11 11
31 31 29 30 30 30 25 22 16 19 14 11 16 16 21 20 12 14 12 10 15 16 18 18 17 18 12 16 14 15 18 17 17 16 12 13 15 15 14 11 9 12 14
32 33 31 32 32 33 29 24 24 22 18 18 14 16 16 18 21 14 15 12 10 17 19 18 19 19 17 17 19 19 18 18 20 20 20 20 16 12 13 17 12 16 13
33 34 33 32 32 32 28 27 26 22 23 21 20 21 22 23 22 19 19 15 13 19 23 20 21 22 21 15 20 20 25 24 20 17 17 21 17 19 17 15 17 15 14
35 36 36 34 33 33 30 29 26 26 25 24 22 24 25 26 25 22 20 18 17 22 18 26 20 21 20 21 12 11 10 20 20 21 21 20 21 24 22 19 13 14 14
38 39 38 36 34 35 31 30 25 26 25 25 24 22 23 25 22 22 23 23 20 22 20 15 22 19 23 19 12 10 3 13 23 24 24 25 28 24 21 18 16 19 15
39 42 41 39 36 35 31 29 26 24 24 27 25 23 27 26 21 21 25 26 22 22 20 23 19 20 17 16 20 10 3 4 10 23 29 29 28 28 28 23 24 19 17
40 40 41 40 37 36 35 31 30 25 21 24 25 24 29 27 23 24 25 25 26 22 24 20 21 23 22 20 15 20 18 13 2 4 16 25 13 31 19 19 22 17 17
38 41 40 40 38 37 37 33 31 27 23 24 26 27 25 27 29 25 25 21 21 23 23 21 20 20 22 22 21 15 18 18 18 12 5 5 20 14 14 12 11 10 17
33 36 37 39 38 37 39 34 34 31 25 23 25 21 21 21 20 21 20 17 22 20 20 20 19 21 23 20 17 19 21 9 11 11 6 10 13 14 14 15 12 12 5
Wind_Direction
146 151 156 153 147 146 147 152 160 154 144 138 134 117 117 118 114 114 106 107 121 130 128 130 131 127 114 106 104 110 117 113 106 104 99 98 100 97 96 115 96 100 101
144 150 155 153 148 142 144 154 162 160 152 145 133 130 130 130 128 115 113 115 114 128 133 131 133 128 125 126 119 110 114 117 115 121 115 105 102 96 85 124 115 108 105
142 148 151 154 150 148 145 149 161 159 153 148 146 141 135 134 122 122 114 114 120 129 130 128 131 125 119 127 128 123 125 127 128 130 120 108 114 97 99 105 107 110 105
142 148 153 157 157 154 148 144 146 152 151 152 150 144 139 131 128 129 124 126 122 126 132 130 129 123 121 122 128 128 130 136 140 153 164 110 110 109 104 103 115 116 111
142 148 155 158 157 153 149 144 144 148 148 150 150 149 143 139 138 139 133 132 128 124 130 135 136 132 131 132 138 140 149 147 150 184 339 129 122 118 116 107 104 116 115
146 149 159 160 156 150 146 148 146 150 153 156 154 151 151 151 149 143 142 138 132 136 138 135 139 133 135 136 138 140 155 157 168 132 103 121 126 125 122 124 129 116 117
143 148 156 161 160 157 154 155 156 157 155 159 161 151 146 150 155 150 147 145 134 142 136 142 142 138 142 142 147 145 165 166 236 130 118 143 136 135 126 132 132 132 123
133 141 150 162 165 164 162 161 160 160 164 166 156 156 154 155 154 156 153 152 148 146 150 145 145 137 145 153 156 156 167 181 320 159 144 133 138 143 137 137 138 136 127
139 141 147 158 165 167 168 167 166 168 167 169 172 169 164 165 159 154 161 155 153 155 155 152 149 150 149 153 157 167 180 188 200 128 157 139 141 153 147 141 141 137 133
139 144 147 161 169 172 176 178 172 177 174 174 179 179 179 171 166 166 167 164 161 165 157 160 163 161 160 167 179 180 200 216 183 172 155 134 139 153 164 156 149 152 155
141 150 154 162 175 176 178 183 181 180 184 182 186 186 188 179 172 178 172 181 169 169 174 174 173 172 180 185 197 206 223 215 250 248 165 151 140 159 160 160 164 169 174
167 156 162 164 173 178 177 184 182 189 186 191 203 199 195 191 181 180 184 189 176 179 182 177 178 182 187 202 205 212 221 266 288 171 150 145 141 152 173 179 183 191 196
177 172 163 166 171 175 185 177 181 191 193 197 203 209 209 199 195 183 183 182 184 184 183 188 185 194 207 205 213 210 233 249 249 165 151 152 149 163 183 187 198 205 213
176 183 169 163 166 169 186 173 188 190 198 196 198 202 208 200 190 184 183 187 188 191 191 189 198 203 215 230 233 224 212 246 199 195 169 166 164 153 198 198 202 210 214
176 184 176 165 164 178 194 184 190 190 194 196 196 200 197 205 188 191 191 198 190 201 194 198 201 194 212 221 234 219 215 259 279 202 174 190 191 167 193 208 211 215 216
177 183 175 165 171 174 199 184 190 202 203 192 195 193 189 196 184 192 186 191 201 207 201 208 218 206 209 220 214 226 241 261 244 238 204 181 200 218 206 219 217 216 219
178 183 176 170 173 177 191 194 198 212 212 196 211 195 201 184 207 196 194 219 210 216 213 218 219 210 213 223 208 213 231 251 264 266 237 223 227 237 232 227 225 223 223
176 183 180 174 175 183 187 196 195 208 227 238 218 180 199 192 193 209 208 221 229 212 201 211 216 219 219 217 226 211 214 222 246 247 251 244 235 241 229 225 236 233 231
180 180 181 184 180 181 189 189 195 202 209 224 221 217 205 201 213 214 218 237 215 226 207 206 213 214 221 224 224 225 214 216 224 237 233 241 256 239 240 234 235 229 228
178 179 182 183 182 182 184 188 194 203 207 213 220 207 215 211 207 217 221 229 221 221 224 210 213 217 222 224 234 234 225 222 228 245 241 226 238 244 244 228 215 222 240
175 176 182 184 185 180 184 188 193 201 201 211 217 216 216 211 210 214 213 220 234 224 227 216 216 213 221 230 261 256 229 234 229 238 242 240 234 241 246 244 222 238 249
175 176 183 187 187 185 188 189 198 197 203 205 215 218 214 207 216 213 214 216 218 223 227 223 220 208 219 224 220 246 260 258 242 237 234 231 237 238 232 225 237 241 241
176 178 182 187 191 188 189 188 196 201 206 202 209 214 209 207 207 216 208 218 223 228 230 228 222 224 220 231 231 187 192 236 224 225 227 230 232 234 238 234 239 229 238
180 179 181 186 192 190 189 191 196 197 200 200 201 210 210 208 210 214 219 222 214 216 227 226 229 230 230 232 238 225 239 271 304 325 225 223 232 229 229 224 229 224 225
176 181 181 186 191 191 193 195 196 201 200 204 200 212 205 209 220 219 224 224 240 219 222 225 219 226 232 232 229 230 237 257 260 232 278 216 224 214 209 209 221 238 247
178 178 183 186 192 193 195 199 198 199 202 198 210 204 199 206 212 223 232 235 256 260 231 225 228 229 232 236 232 240 237 224 234 230 224 244 198 205 205 213 234 243 221